Content
SEND FEEDBACK

Daily
Averages
Monthly
Summary
United States of America

RAPID CITY, SOUTH DAKOTA


Home > North America > United States > South Dakota
Elevation: 3162 feet     Latitude: 44 03N     Longitude: 103 04W

WEATHER
 
SELECT A DAY
Number of Records: 204,365;   Date Range: 1/1/95 - 11/26/14
 
SHARE

PRINT THIS DATA

[ ← Previous Day ]
WEATHER ALMANAC - JANUARY 6, 2013
[ Next Day → ]
[ °C ]   °F
Weather ElementAverageHighLow
Temperature30 °F55 °F (2:52 pm)10 °F (7:52 am)
Dewpoint13.2 °F21.9 °F (12:52 pm)6.1 °F (7:52 am)
Humidity54.3 %84 % (6:52 am)16 % (2:52 pm)
Barometer30.04 in30.26 in (1:52 am)29.87 in (1:52 pm)
Wind Speed6.7 mph16.1 mph (11:52 am)
Weather ElementAverage
Visibility10 mi
Wind DirectionSSE (173.5 °)

Weather ElementTotal
Precipitation---
Heating Degree Days32.5 (Base 65)
Averaged from 23 records on January 6, 2013
WEATHER CONDITIONS BREAKOUT
WIND DIRECTION BREAKOUT
WEATHER BY HOUR - JANUARY 6, 2013
[ °C ]   °F
Local TimeTemperatureDewpointHumidityBarometerVisibilityWind DirectionWind SpeedGust SpeedPrecipitationEventsConditions
1:52 AM19.9 °F10.9 °F68 %30.26 in10.0 miWest (280°)8.1 mphClear
2:52 AM16.0 °F9.0 °F74 %30.26 in10.0 miCalmClear
3:52 AM15.1 °F8.1 °F74 %30.24 in10.0 miCalmClear
4:52 AM17.1 °F9.0 °F71 %30.24 in10.0 miSE (140°)4.6 mphClear
5:52 AM16.0 °F9.0 °F74 %30.21 in10.0 miESE (110°)4.6 mphClear
6:52 AM10.9 °F7.0 °F84 %30.21 in10.0 miESE (120°)6.9 mphClear
7:52 AM10.0 °F6.1 °F84 %30.20 in10.0 miSE (130°)5.8 mphClear
8:52 AM19.0 °F12.0 °F74 %30.16 in10.0 miSE (140°)6.9 mphClear
9:52 AM30.0 °F17.1 °F59 %30.09 in10.0 miSE (130°)9.2 mphClear
10:52 AM33.1 °F16.0 °F50 %30.03 in10.0 miSouth (180°)12.7 mphClear
11:52 AM34.0 °F18.0 °F52 %29.97 in10.0 miSouth (180°)16.1 mphClear
12:52 PM43.0 °F21.9 °F43 %29.91 in10.0 miSE (130°)8.1 mphClear
1:52 PM50.0 °F19.9 °F31 %29.87 in10.0 miVariable5.8 mphClear
2:52 PM55.0 °F9.0 °F16 %29.87 in10.0 miSW (230°)12.7 mphClear
3:52 PM50.0 °F10.0 °F20 %29.87 in10.0 miWSW (250°)8.1 mphClear
4:52 PM37.9 °F17.1 °F43 %29.90 in10.0 miNNW (340°)4.6 mphClear
5:52 PM34.0 °F19.0 °F54 %29.93 in10.0 miNorth (10°)11.5 mphClear
6:52 PM30.9 °F12.9 °F47 %29.96 in10.0 miWNW (290°)5.8 mphClear
7:52 PM32.0 °F10.9 °F42 %29.96 in10.0 miCalmClear
8:52 PM28.9 °F14.0 °F54 %29.94 in10.0 miNorth (350°)3.5 mphClear
9:52 PM35.1 °F14.0 °F42 %29.90 in10.0 miNW (310°)6.9 mphClear
10:52 PM37.0 °F17.1 °F44 %29.91 in10.0 miNNW (340°)6.9 mphClear
11:52 PM34.0 °F16.0 °F48 %29.92 in10.0 miNNW (330°)5.8 mphClear
Hourly data recorded from KRAP, located miles away from Rapid City, South Dakota







STORIES FROM OUR PARTNERS